Weather History for Nebraska City, NE

Change the Weather History Date:

Saturday, May 25, 2013

  Actual Average (KSDA) Record (KSDA)
Temperature  
Mean Temperature 72 °F -  
Max Temperature 82 °F 78 °F 99 °F (1967)
Min Temperature 61 °F 54 °F 40 °F (1979)
Cooling Degree Days 6    
Growing Degree Days 22 (Base 50)    
Moisture  
Dew Point 60 °F    
Average Humidity 71    
Maximum Humidity 99    
Minimum Humidity 51    
Precipitation  
Precipitation 0.04 in - - ()
Sea Level Pressure  
Sea Level Pressure 30.04 in    
Wind  
Wind Speed 11 mph (SSE)    
Max Wind Speed 20 mph    
Max Gust Speed 30 mph    
Visibility 10 miles    
Events Rain , Thunderstorm    
Averages and records for this station are not official NWS values.
T = Trace of Precipitation, MM = Missing Value Source: NWS Daily Summary

Daily Weather History Graph

Daily Weather History Graph

Search for Another Location

Airport:

Trip Planner

Search our weather history database for the weather conditions in past years. The results will help you decide how hot, cold, wet, or windy it might be!

Date:

Astronomy

May. 25, 2013 Rise Set
Actual Time 5:58 AM CDT 8:42 PM CDT
Civil Twilight 5:26 AM CDT 9:14 PM CDT
Nautical Twilight 4:46 AM CDT 9:55 PM CDT
Astronomical Twilight 4:00 AM CDT 10:41 PM CDT
Moon 9:31 PM CDT (5/25) 6:26 AM CDT (5/25)
Length of Visible Light 15h 48m
Length of Day
14h 44m
Full, 100% of the Moon is Illuminated
May 25
Full
May 31
Last Quarter
Jun 8
New
Jun 16
First Quarter
Jun 23
Full

Hourly Weather History & Observations

Time (CDT) Temp. Heat Index Dew Point Humidity Pressure Visibility Wind Dir Wind Speed Gust Speed Precip Events Conditions
12:15 AM 64.6 °F - 47.7 °F 54% 30.14 in 10.0 mi ESE 8.1 mph - N/A   Overcast
12:35 AM 64.4 °F - 46.8 °F 53% 30.12 in 10.0 mi SE 9.2 mph - N/A   Overcast
12:55 AM 64.0 °F - 46.6 °F 53% 30.11 in 10.0 mi SE 10.4 mph - N/A Thunderstorm Overcast
1:15 AM 64.4 °F - 46.0 °F 51% 30.11 in 10.0 mi SE 13.8 mph - N/A   Overcast
1:35 AM 63.9 °F - 45.9 °F 52% 30.09 in 10.0 mi SE 12.7 mph 21.9 mph N/A   Overcast
1:55 AM 63.9 °F - 45.7 °F 52% 30.09 in 10.0 mi SE 13.8 mph 20.7 mph N/A   Overcast
2:15 AM 63.7 °F - 45.5 °F 52% 30.09 in 10.0 mi SE 15.0 mph 23.0 mph N/A   Overcast
2:35 AM 63.9 °F - 45.5 °F 51% 30.08 in 10.0 mi SE 16.1 mph 21.9 mph N/A   Overcast
2:55 AM 63.7 °F - 45.7 °F 52% 30.08 in 10.0 mi SSE 16.1 mph 23.0 mph N/A   Overcast
3:15 AM 63.7 °F - 45.9 °F 52% 30.08 in 10.0 mi SSE 13.8 mph 18.4 mph N/A   Overcast
3:35 AM 63.7 °F - 46.0 °F 53% 30.07 in 10.0 mi SSE 12.7 mph 20.7 mph N/A   Mostly Cloudy
3:55 AM 63.5 °F - 46.8 °F 54% 30.06 in 10.0 mi SSE 13.8 mph 17.3 mph N/A   Overcast
4:15 AM 63.5 °F - 47.5 °F 56% 30.06 in 10.0 mi SSE 12.7 mph 17.3 mph N/A   Mostly Cloudy
4:35 AM 64.4 °F - 48.6 °F 56% 30.04 in 10.0 mi SSE 16.1 mph 21.9 mph N/A   Overcast
4:55 AM 64.8 °F - 50.0 °F 59% 30.04 in 10.0 mi South 17.3 mph 23.0 mph N/A Thunderstorm Overcast
5:15 AM 64.4 °F - 51.4 °F 63% 30.05 in 10.0 mi South 15.0 mph - N/A Rain , Thunderstorm Light Thunderstorms and Rain
5:35 AM 61.3 °F - 54.5 °F 78% 30.05 in 10.0 mi SSW 10.4 mph 18.4 mph 0.01 in Rain , Thunderstorm Light Thunderstorms and Rain
5:55 AM 61.3 °F - 56.3 °F 83% 30.08 in 10.0 mi SW 11.5 mph - 0.01 in Rain , Thunderstorm Rain
6:15 AM 61.0 °F - 57.4 °F 88% 30.07 in 10.0 mi SW 10.4 mph - N/A Rain , Thunderstorm Light Thunderstorms and Rain
6:35 AM 61.7 °F - 60.6 °F 96% 30.04 in 10.0 mi SW 12.7 mph - 0.02 in Rain Light Rain
6:55 AM 62.1 °F - 61.7 °F 99% 30.07 in 10.0 mi SW 15.0 mph - 0.03 in Rain Light Rain
7:15 AM 61.9 °F - 61.7 °F 99% 30.07 in 10.0 mi WSW 16.1 mph - N/A   Scattered Clouds
7:35 AM 62.1 °F - 61.9 °F 99% 30.09 in 10.0 mi West 11.5 mph - N/A   Scattered Clouds
7:55 AM 62.6 °F - 62.1 °F 98% 30.09 in 10.0 mi West 10.4 mph - N/A   Overcast
8:15 AM 63.1 °F - 62.8 °F 99% 30.07 in 10.0 mi SW 8.1 mph - N/A   Overcast
8:35 AM 64.8 °F - 63.9 °F 97% 30.09 in 10.0 mi SW 10.4 mph - N/A Thunderstorm Scattered Clouds
8:55 AM 64.9 °F - 63.9 °F 96% 30.09 in 10.0 mi WSW 8.1 mph - N/A   Mostly Cloudy
9:15 AM 65.8 °F - 64.4 °F 95% 30.12 in 10.0 mi West 6.9 mph - N/A   Overcast
9:35 AM 65.8 °F - 64.0 °F 94% 30.12 in 10.0 mi West 8.1 mph - N/A   Overcast
9:55 AM 66.4 °F - 63.9 °F 92% 30.12 in 10.0 mi WSW 9.2 mph - N/A   Overcast
10:15 AM 67.1 °F - 64.6 °F 92% 30.09 in 10.0 mi SW 3.5 mph - N/A   Overcast
10:35 AM 68.2 °F - 64.9 °F 89% 30.04 in 10.0 mi South 12.7 mph - N/A   Scattered Clouds
10:55 AM 69.4 °F - 65.3 °F 87% 30.00 in 10.0 mi South 16.1 mph - N/A   Clear
11:15 AM 70.7 °F - 64.8 °F 81% 30.00 in 10.0 mi South 17.3 mph - N/A   Clear
11:35 AM 71.6 °F - 65.5 °F 81% 29.99 in 10.0 mi South 19.6 mph 29.9 mph N/A   Clear
11:55 AM 73.2 °F - 65.7 °F 77% 30.04 in 10.0 mi ESE 5.8 mph - N/A   Clear
12:15 PM 74.5 °F - 65.5 °F 73% 30.04 in 10.0 mi SE 3.5 mph - N/A   Scattered Clouds
12:35 PM 73.8 °F - 66.0 °F 77% 30.03 in 10.0 mi ENE 8.1 mph - N/A   Scattered Clouds
12:55 PM 72.0 °F - 65.7 °F 80% 30.04 in 10.0 mi NE 8.1 mph - N/A   Mostly Cloudy
1:15 PM 71.6 °F - 65.1 °F 80% 30.03 in 10.0 mi ENE 10.4 mph - N/A   Overcast
1:35 PM 74.3 °F - 66.7 °F 77% 30.02 in 10.0 mi ENE 11.5 mph 17.3 mph N/A   Scattered Clouds
1:55 PM 72.3 °F - 65.3 °F 78% 30.02 in 10.0 mi ENE 12.7 mph - N/A   Mostly Cloudy
2:15 PM 73.6 °F - 64.8 °F 74% 30.01 in 10.0 mi ENE 12.7 mph 17.3 mph N/A   Mostly Cloudy
2:35 PM 73.4 °F - 64.2 °F 73% 30.02 in 10.0 mi ENE 13.8 mph - N/A   Overcast
2:55 PM 73.4 °F - 64.0 °F 72% 30.02 in 10.0 mi ENE 10.4 mph - N/A   Overcast
3:15 PM 75.4 °F - 64.6 °F 69% 30.01 in 10.0 mi East 13.8 mph 17.3 mph N/A   Mostly Cloudy
3:35 PM 76.1 °F - 63.9 °F 66% 30.01 in 10.0 mi East 12.7 mph - N/A   Scattered Clouds
3:55 PM 75.0 °F - 63.3 °F 67% 30.01 in 10.0 mi East 10.4 mph - N/A   Mostly Cloudy
4:15 PM 74.7 °F - 63.1 °F 67% 30.02 in 10.0 mi ESE 9.2 mph - N/A   Overcast
4:35 PM 76.8 °F - 63.9 °F 64% 30.01 in 10.0 mi SE 8.1 mph - N/A   Overcast
4:55 PM 80.8 °F 82.8 °F 65.8 °F 60% 30.00 in 10.0 mi South 10.4 mph - N/A   Mostly Cloudy
5:15 PM 82.2 °F 84.2 °F 65.5 °F 57% 29.99 in 10.0 mi South 12.7 mph 17.3 mph N/A   Scattered Clouds
5:35 PM 82.4 °F 83.5 °F 63.1 °F 52% 29.99 in 10.0 mi South 13.8 mph - N/A   Scattered Clouds
5:55 PM 81.5 °F 82.7 °F 62.8 °F 53% 29.99 in 10.0 mi South 12.7 mph 20.7 mph N/A   Scattered Clouds
6:15 PM 81.3 °F 82.6 °F 63.1 °F 54% 29.98 in 10.0 mi South 12.7 mph 18.4 mph N/A   Mostly Cloudy
6:35 PM 81.9 °F 83.2 °F 63.5 °F 54% 29.97 in 10.0 mi South 12.7 mph 16.1 mph N/A   Mostly Cloudy
6:55 PM 80.8 °F 82.1 °F 63.3 °F 55% 29.97 in 10.0 mi South 9.2 mph - N/A   Mostly Cloudy
7:15 PM 80.6 °F 81.9 °F 63.0 °F 55% 29.97 in 10.0 mi South 11.5 mph 17.3 mph N/A   Mostly Cloudy
7:35 PM 80.1 °F 81.5 °F 63.1 °F 56% 29.97 in 10.0 mi South 10.4 mph - N/A   Overcast
7:55 PM 77.7 °F - 62.8 °F 60% 29.97 in 10.0 mi SE 4.6 mph - N/A   Overcast
8:15 PM 76.3 °F - 62.8 °F 63% 29.97 in 10.0 mi SE 6.9 mph - N/A   Overcast
8:35 PM 76.1 °F - 63.5 °F 65% 29.97 in 10.0 mi SSE 6.9 mph - N/A   Mostly Cloudy
8:55 PM 77.2 °F - 63.7 °F 63% 29.98 in 10.0 mi South 10.4 mph - N/A   Overcast
9:15 PM 75.7 °F - 63.7 °F 66% 29.99 in 10.0 mi South 9.2 mph - N/A   Mostly Cloudy
9:35 PM 74.1 °F - 63.7 °F 70% 30.00 in 10.0 mi South 6.9 mph - N/A   Scattered Clouds
9:55 PM 73.2 °F - 63.7 °F 72% 30.01 in 10.0 mi SSE 5.8 mph - N/A   Clear
10:15 PM 73.4 °F - 63.7 °F 71% 30.02 in 10.0 mi SSE 4.6 mph - N/A   Mostly Cloudy
10:35 PM 73.9 °F - 63.7 °F 70% 30.03 in 10.0 mi SSE 4.6 mph - N/A   Overcast
10:55 PM 71.4 °F - 63.5 °F 76% 30.02 in 10.0 mi ESE 5.8 mph - N/A   Overcast
11:15 PM 70.7 °F - 63.0 °F 76% 30.03 in 10.0 mi ESE 6.9 mph - N/A   Overcast
11:35 PM 69.4 °F - 62.2 °F 78% 30.01 in 10.0 mi ESE 8.1 mph - N/A   Overcast
11:55 PM 69.6 °F - 62.2 °F 77% 30.01 in 10.0 mi SE 6.9 mph - N/A   Overcast